QPF
0.00 0.00 0.00 0.00 0.00 0.00 0.00 0.00 0.00 0.00 0.00 0.00 0.00 0.00 0.00 0.00 0.01 0.01 0.01 0.02 0.01 0.01 0.02 0.01 0.00 0.00 0.00 0.00 0.00 0.00 0.02 0.02 0.05
0.00 0.00 0.00 0.00 0.00 0.00 0.00 0.00 0.00 0.00 0.00 0.00 0.00 0.00 0.00 0.00 0.01 0.01 0.01 0.00 0.00 0.00 0.00 0.00 0.00 0.00 0.01 0.00 0.00 0.00 0.00 0.01 0.04
0.00 0.00 0.00 0.00 0.00 0.00 0.00 0.00 0.00 0.00 0.00 0.00 0.00 0.00 0.00 0.00 0.00 0.00 0.01 0.02 0.00 0.00 0.00 0.00 0.00 0.00 0.01 0.00 0.00 0.00 0.01 0.02 0.09
0.00 0.00 0.00 0.00 0.00 0.00 0.00 0.00 0.00 0.00 0.00 0.00 0.00 0.00 0.00 0.00 0.00 0.00 0.00 0.00 0.00 0.00 0.00 0.00 0.02 0.03 0.00 0.01 0.01 0.00 0.03 0.12 0.11
0.00 0.00 0.00 0.00 0.00 0.00 0.00 0.00 0.00 0.00 0.00 0.00 0.00 0.00 0.00 0.00 0.00 0.00 0.00 0.00 0.00 0.00 0.00 0.00 0.01 0.01 0.01 0.00 0.00 0.00 0.03 0.11 0.14
0.00 0.00 0.00 0.00 0.00 0.00 0.00 0.00 0.00 0.00 0.00 0.00 0.00 0.00 0.00 0.00 0.00 0.00 0.00 0.00 0.00 0.00 0.00 0.00 0.00 0.00 0.00 0.00 0.00 0.02 0.07 0.09 0.06
0.00 0.00 0.00 0.00 0.00 0.00 0.00 0.00 0.00 0.00 0.00 0.00 0.00 0.00 0.00 0.00 0.00 0.00 0.00 0.00 0.00 0.00 0.00 0.00 0.00 0.00 0.00 0.00 0.00 0.06 0.12 0.11 0.04
0.00 0.00 0.00 0.00 0.00 0.00 0.00 0.00 0.00 0.00 0.00 0.00 0.00 0.00 0.00 0.00 0.00 0.00 0.00 0.00 0.00 0.00 0.00 0.00 0.00 0.00 0.00 0.00 0.00 0.05 0.12 0.07 0.12
0.00 0.00 0.00 0.00 0.00 0.00 0.00 0.00 0.00 0.00 0.00 0.00 0.00 0.00 0.00 0.00 0.00 0.00 0.00 0.00 0.00 0.00 0.00 0.00 0.00 0.00 0.00 0.00 0.00 0.00 0.02 0.04 0.06
0.00 0.00 0.00 0.00 0.00 0.00 0.00 0.00 0.00 0.00 0.00 0.00 0.00 0.00 0.00 0.00 0.00 0.00 0.00 0.00 0.00 0.00 0.00 0.00 0.00 0.00 0.00 0.00 0.00 0.00 0.00 0.00 0.01
0.00 0.00 0.00 0.00 0.00 0.00 0.00 0.00 0.00 0.00 0.00 0.00 0.00 0.00 0.00 0.00 0.00 0.00 0.00 0.00 0.00 0.00 0.00 0.00 0.00 0.00 0.00 0.00 0.00 0.00 0.00 0.00 0.00
0.00 0.00 0.00 0.00 0.00 0.00 0.00 0.00 0.00 0.00 0.00 0.00 0.00 0.00 0.00 0.00 0.00 0.00 0.00 0.00 0.00 0.00 0.00 0.00 0.00 0.00 0.00 0.00 0.00 0.00 0.00 0.00 0.00
0.00 0.00 0.00 0.00 0.00 0.00 0.00 0.00 0.00 0.00 0.00 0.00 0.00 0.00 0.00 0.00 0.00 0.04 0.06 0.02 0.00 0.00 0.01 0.01 0.00 0.00 0.00 0.00 0.00 0.00 0.00 0.00 0.00
0.00 0.00 0.00 0.00 0.00 0.00 0.00 0.00 0.00 0.00 0.00 0.00 0.00 0.00 0.00 0.00 0.01 0.05 0.10 0.09 0.05 0.06 0.08 0.05 0.02 0.00 0.00 0.00 0.00 0.00 0.00 0.00 0.00
0.00 0.00 0.00 0.00 0.00 0.00 0.00 0.00 0.01 0.02 0.03 0.02 0.01 0.01 0.04 0.00 0.01 0.09 0.09 0.05 0.07 0.05 0.04 0.02 0.02 0.01 0.00 0.00 0.00 0.00 0.00 0.00 0.00
0.00 0.00 0.00 0.00 0.00 0.00 0.00 0.00 0.00 0.04 0.08 0.04 0.01 0.04 0.09 0.06 0.07 0.10 0.04 0.01 0.02 0.03 0.03 0.02 0.03 0.03 0.02 0.02 0.01 0.00 0.00 0.00 0.00
0.00 0.00 0.00 0.00 0.00 0.00 0.01 0.00 0.01 0.09 0.10 0.06 0.08 0.15 0.21 0.24 0.16 0.05 0.09 0.04 0.00 0.01 0.04 0.10 0.11 0.07 0.06 0.05 0.04 0.01 0.00 0.00 0.00
0.00 0.00 0.00 0.00 0.00 0.00 0.00 0.00 0.01 0.06 0.13 0.11 0.13 0.21 0.31 0.31 0.13 0.08 0.10 0.04 0.01 0.00 0.00 0.02 0.05 0.08 0.08 0.08 0.06 0.05 0.00 0.00 0.00
0.00 0.00 0.00 0.00 0.00 0.00 0.00 0.00 0.00 0.01 0.10 0.17 0.20 0.22 0.22 0.22 0.20 0.13 0.10 0.06 0.03 0.00 0.00 0.00 0.00 0.02 0.04 0.05 0.04 0.02 0.00 0.00 0.00
0.00 0.00 0.00 0.00 0.00 0.00 0.00 0.00 0.00 0.00 0.00 0.01 0.10 0.12 0.14 0.14 0.12 0.09 0.05 0.01 0.00 0.00 0.01 0.04 0.05 0.06 0.07 0.06 0.06 0.04 0.01 0.00 0.00
MSLP
1000.95 1001.37 1002.12 1002.80 1003.40 1004.17 1004.92 1005.63 1006.37 1007.04 1007.74 1008.27 1008.99 1009.50 1009.94 1010.62 1011.18 1011.90 1012.18 1012.97 1013.40 1013.55 1013.90 1014.21 1014.32 1014.17 1014.22 1014.23 1014.20 1014.24 1014.31 1014.66 1015.13
1000.04 1000.78 1001.56 1002.48 1003.19 1003.84 1004.52 1005.28 1006.00 1006.61 1007.28 1007.78 1008.44 1009.02 1009.60 1010.25 1010.89 1011.33 1011.81 1012.21 1012.62 1013.06 1013.38 1013.47 1013.63 1013.61 1013.73 1013.81 1013.97 1014.05 1014.17 1014.32 1014.53
999.61 1000.51 1001.28 1002.04 1002.80 1003.59 1004.34 1004.92 1005.67 1006.39 1006.95 1007.30 1007.92 1008.56 1009.26 1009.80 1010.48 1010.96 1011.36 1011.86 1012.04 1012.36 1012.57 1013.04 1013.17 1013.23 1013.41 1013.54 1013.69 1013.82 1013.94 1014.02 1014.13
999.73 1000.39 1001.13 1001.82 1002.47 1003.30 1004.07 1004.70 1005.40 1006.01 1006.71 1007.11 1007.58 1008.09 1008.69 1009.36 1009.96 1010.47 1010.87 1011.14 1011.57 1011.88 1012.15 1012.49 1012.66 1012.82 1012.81 1013.04 1013.41 1013.59 1013.54 1013.56 1013.47
999.90 1000.43 1000.87 1001.69 1002.39 1003.20 1003.83 1004.44 1005.07 1005.75 1006.29 1006.83 1007.28 1007.74 1008.41 1008.93 1009.41 1009.93 1010.30 1010.58 1010.96 1011.39 1011.65 1011.98 1012.19 1012.44 1012.49 1012.71 1012.88 1013.14 1013.27 1013.28 1013.32
1000.09 1000.57 1000.99 1001.55 1002.15 1002.91 1003.54 1004.21 1004.92 1005.65 1006.19 1006.58 1007.16 1007.73 1008.31 1008.90 1009.28 1009.49 1009.75 1009.99 1010.37 1010.92 1011.19 1011.46 1011.69 1011.90 1012.01 1012.30 1012.57 1012.83 1013.12 1013.24 1013.34
1000.09 1000.59 1001.05 1001.44 1001.95 1002.50 1003.20 1003.90 1004.52 1005.10 1005.65 1006.23 1006.89 1007.44 1007.93 1008.43 1008.76 1009.06 1009.43 1009.77 1010.04 1010.35 1010.81 1010.98 1011.20 1011.51 1011.75 1011.94 1012.24 1012.63 1012.80 1013.12 1013.53
999.96 1000.30 1000.72 1001.19 1001.60 1002.19 1002.90 1003.55 1004.15 1004.66 1005.21 1005.68 1006.39 1007.01 1007.47 1008.00 1008.45 1008.83 1009.23 1009.56 1009.82 1010.13 1010.39 1010.63 1010.92 1011.25 1011.59 1011.85 1012.07 1012.33 1012.75 1013.10 1013.27
999.71 999.75 1000.26 1000.82 1001.23 1001.86 1002.45 1003.27 1003.82 1004.26 1004.75 1005.40 1006.00 1006.74 1007.36 1007.95 1008.49 1008.80 1008.97 1009.24 1009.57 1009.89 1010.09 1010.43 1010.86 1011.07 1011.42 1011.79 1011.85 1012.55 1012.63 1012.57 1012.80
999.73 999.67 1000.01 1000.34 1001.01 1001.45 1002.13 1002.61 1003.15 1003.64 1004.36 1005.18 1005.82 1006.44 1007.21 1007.68 1008.11 1008.53 1008.80 1009.14 1009.54 1009.71 1010.09 1010.57 1010.80 1011.10 1011.37 1011.64 1012.04 1012.59 1012.68 1012.54 1012.35
1000.11 999.88 999.65 1000.09 1000.58 1000.99 1001.51 1002.00 1002.59 1003.31 1004.04 1004.99 1005.74 1006.16 1006.49 1007.08 1007.60 1008.03 1008.43 1008.88 1009.28 1009.73 1010.19 1010.51 1010.81 1011.22 1011.55 1011.77 1012.14 1012.61 1012.91 1012.77 1012.54
1000.54 1000.02 999.66 999.60 1000.00 1000.33 1000.95 1001.54 1002.24 1002.84 1003.64 1004.32 1005.16 1005.74 1006.45 1006.96 1007.16 1007.57 1008.06 1008.39 1008.88 1009.39 1009.83 1010.30 1010.76 1011.11 1011.52 1011.90 1012.21 1012.55 1012.75 1012.81 1012.64
1000.85 1000.16 999.89 999.76 1000.02 1000.25 1000.73 1001.07 1001.86 1002.39 1002.95 1003.36 1004.09 1004.98 1005.87 1006.74 1007.31 1007.26 1007.42 1007.68 1008.33 1008.79 1009.03 1009.59 1010.28 1011.09 1011.55 1011.94 1012.32 1012.80 1012.83 1012.98 1012.63
1001.71 1001.08 1000.49 1000.19 1000.29 1000.52 1000.74 1001.15 1001.67 1002.39 1002.69 1003.02 1003.51 1004.47 1005.21 1006.03 1006.57 1007.12 1007.53 1008.11 1008.42 1008.57 1009.05 1009.55 1009.83 1010.70 1011.45 1011.66 1011.98 1012.43 1012.72 1012.92 1012.83
1002.19 1001.82 1001.54 1001.28 1000.93 1001.12 1001.39 1001.63 1001.76 1002.21 1002.83 1003.40 1003.96 1004.15 1004.80 1005.47 1005.87 1006.53 1007.14 1007.66 1008.18 1008.68 1008.67 1008.75 1008.58 1010.27 1011.06 1011.47 1011.81 1012.25 1012.59 1012.82 1012.96
1002.76 1002.49 1002.16 1002.25 1002.19 1002.19 1002.18 1002.21 1002.35 1002.58 1002.81 1003.53 1004.54 1005.08 1004.27 1005.05 1005.54 1006.07 1005.83 1006.03 1006.30 1007.89 1008.41 1008.30 1007.71 1008.98 1010.20 1010.40 1011.66 1011.76 1012.42 1012.70 1012.97
1003.05 1002.88 1002.64 1002.59 1002.57 1002.73 1003.23 1003.39 1003.22 1003.24 1003.48 1002.79 1004.02 1005.20 1004.90 1005.71 1006.25 1005.12 1005.47 1005.98 1006.25 1006.94 1007.63 1008.12 1008.54 1009.06 1009.63 1009.72 1010.41 1011.19 1011.72 1012.25 1012.67
1003.25 1003.24 1003.19 1003.26 1003.30 1003.32 1003.37 1003.43 1003.28 1003.07 1002.90 1001.92 1001.46 1001.89 1002.11 1005.75 1006.35 1005.15 1005.27 1006.05 1006.67 1006.82 1006.98 1007.23 1007.84 1008.55 1009.11 1009.47 1009.93 1010.37 1011.15 1011.36 1011.81
1003.70 1003.54 1003.56 1003.71 1003.92 1003.99 1003.98 1003.78 1003.53 1003.02 1002.51 1001.96 1001.33 1000.01 1003.34 1005.34 1006.37 1005.87 1005.82 1006.62 1007.17 1007.38 1007.28 1007.16 1007.56 1007.63 1008.21 1009.09 1009.16 1009.96 1010.90 1011.31 1011.73
1004.40 1003.97 1003.83 1003.80 1003.82 1003.97 1003.97 1003.70 1003.58 1003.40 1003.04 1002.57 1002.20 1003.06 1003.59 1005.33 1005.83 1005.69 1006.05 1006.19 1006.65 1007.07 1007.59 1007.68 1007.64 1007.67 1007.80 1008.31 1008.69 1009.47 1010.23 1010.84 1011.52
Thickness
5855 5854 5852 5847 5842 5837 5830 5824 5818 5810 5800 5794 5791 5787 5785 5781 5777 5770 5768 5761 5758 5757 5754 5750 5751 5753 5753 5753 5754 5756 5756 5756 5751
5859 5857 5854 5847 5843 5840 5833 5825 5818 5813 5804 5799 5794 5789 5786 5781 5776 5773 5768 5765 5763 5759 5757 5756 5754 5756 5755 5756 5754 5755 5755 5753 5753
5863 5858 5854 5851 5846 5839 5833 5827 5820 5814 5808 5802 5797 5792 5786 5782 5777 5774 5771 5767 5765 5762 5761 5758 5757 5756 5754 5753 5752 5753 5753 5752 5751
5860 5857 5853 5850 5848 5842 5835 5828 5821 5814 5807 5802 5798 5794 5788 5782 5778 5776 5774 5771 5767 5765 5763 5760 5759 5756 5755 5753 5751 5749 5751 5752 5754
5859 5856 5856 5851 5846 5840 5833 5826 5820 5813 5808 5802 5799 5795 5788 5783 5780 5777 5774 5772 5770 5768 5765 5763 5760 5756 5754 5752 5751 5749 5749 5749 5750
5851 5850 5850 5848 5845 5838 5832 5826 5818 5811 5805 5802 5797 5792 5785 5779 5776 5776 5774 5774 5773 5769 5767 5764 5761 5759 5756 5752 5751 5748 5746 5745 5744
5848 5847 5845 5845 5842 5839 5833 5827 5820 5813 5808 5804 5797 5791 5787 5781 5779 5776 5774 5773 5772 5770 5766 5764 5762 5759 5756 5754 5750 5746 5744 5742 5738
5845 5844 5845 5844 5841 5837 5832 5826 5821 5815 5810 5806 5800 5793 5788 5783 5779 5776 5773 5771 5770 5768 5767 5764 5762 5759 5756 5753 5751 5748 5742 5740 5737
5844 5847 5846 5844 5842 5836 5832 5825 5820 5815 5811 5805 5800 5792 5785 5780 5775 5772 5771 5769 5767 5766 5765 5764 5760 5758 5755 5751 5751 5743 5742 5743 5741
5841 5846 5846 5843 5839 5835 5831 5827 5823 5816 5811 5806 5798 5790 5783 5779 5775 5770 5769 5767 5764 5763 5760 5758 5756 5754 5753 5750 5748 5741 5740 5742 5744
5835 5841 5845 5843 5839 5837 5833 5831 5826 5820 5813 5803 5795 5789 5787 5783 5777 5773 5770 5766 5763 5760 5757 5753 5751 5748 5747 5745 5743 5737 5735 5737 5741
5831 5838 5842 5845 5844 5841 5836 5830 5825 5819 5811 5805 5796 5789 5782 5779 5779 5774 5770 5766 5762 5759 5756 5751 5747 5746 5743 5738 5737 5733 5733 5733 5736
5826 5834 5838 5840 5839 5837 5831 5827 5822 5817 5812 5809 5798 5792 5785 5779 5773 5771 5768 5767 5762 5760 5760 5754 5748 5740 5738 5734 5731 5725 5726 5727 5731
5813 5820 5827 5832 5831 5826 5823 5821 5817 5808 5808 5804 5803 5796 5786 5778 5774 5766 5761 5756 5755 5754 5749 5746 5745 5737 5731 5731 5729 5725 5721 5719 5722
5799 5803 5808 5813 5814 5812 5811 5809 5806 5801 5796 5797 5794 5791 5784 5774 5771 5763 5755 5750 5744 5742 5742 5737 5741 5731 5725 5725 5723 5718 5715 5713 5713
5785 5789 5794 5795 5795 5793 5794 5794 5792 5786 5786 5783 5777 5774 5780 5772 5766 5757 5758 5757 5751 5738 5734 5726 5733 5729 5722 5723 5715 5716 5710 5707 5706
5774 5778 5780 5782 5783 5779 5770 5771 5774 5771 5770 5775 5766 5755 5756 5734 5740 5754 5756 5749 5746 5737 5728 5718 5714 5712 5712 5716 5714 5712 5710 5706 5703
5764 5764 5765 5763 5760 5761 5760 5760 5762 5762 5760 5773 5774 5765 5755 5724 5730 5744 5746 5739 5734 5729 5726 5722 5715 5707 5703 5704 5704 5706 5702 5703 5701
5749 5749 5749 5746 5743 5741 5738 5739 5742 5748 5754 5760 5760 5765 5724 5708 5715 5726 5730 5722 5718 5714 5714 5716 5710 5709 5703 5700 5701 5698 5692 5689 5689
5730 5736 5736 5734 5734 5731 5728 5726 5725 5724 5730 5738 5745 5736 5733 5715 5713 5719 5720 5720 5715 5711 5706 5700 5701 5699 5702 5699 5697 5689 5683 5680 5679